• Join FlightAware (Why Join?)
  • Login
  • US Flag 
02:16AM EDT


 

Airport Tracker/Info


-or-


 

Live Flight TrackerFlight Track Log ✈ SWA1035 ✈ 25-Apr-2013 ✈ KABQ - KPDX

Flight Track Log - Related Links

Times and Time Zones

All times are in EDT time to prevent confusion due to time zone crossing. See the SWA1035 flight status page for this flight to view local times or setup timezone preferences in your user account.

Time Position Orientation Groundspeed Altitude Reporting Facility
EDT Latitude Longitude Course Direction KTS MPH feet Rate Location/Type
05:33PM 35.0053 -106.6539 228° Southwest 159 183 6,900  Level Albuquerque Center
05:34PM 34.9847 -106.6867 233° Southwest 199 229 8,200 2,160 Climbing Albuquerque Center
05:34PM 34.9711 -106.7147 239° Southwest 233 268 9,100 1,920 Climbing Albuquerque Center
05:35PM 34.9858 -106.7631 290° West 248 285 10,200 2,880 Climbing Albuquerque Center
05:36PM 35.0603 -106.8175 329° Northwest 304 350 14,100 3,600 Climbing Albuquerque Center
05:37PM 35.1669 -106.8339 353° North 335 386 17,700 2,820 Climbing Albuquerque Center
05:38PM 35.2614 -106.8694 343° North 338 389 20,000 1,080 Climbing Albuquerque Center
05:39PM 35.3514 -106.9133 338° Northwest 360 414 20,000  Level Albuquerque Center
05:40PM 35.4428 -106.9567 339° North 359 413 20,100 1,260 Climbing Albuquerque Center
05:41PM 35.5350 -107.0017 338° Northwest 357 411 22,700 2,520 Climbing Albuquerque Center
05:42PM 35.6489 -107.0561 339° North 363 418 25,400 2,340 Climbing Albuquerque Center
05:43PM 35.7431 -107.1019 338° Northwest 373 429 27,600 1,740 Climbing Albuquerque Center
05:44PM 35.8511 -107.1561 338° Northwest 376 433 29,100 960 Climbing Albuquerque Center
05:45PM 35.9586 -107.2058 339° North 421 484 29,600 720 Climbing Albuquerque Center
05:46PM 36.0708 -107.2622 338° Northwest 449 517 30,700 1,740 Climbing Albuquerque Center
05:47PM 36.2067 -107.3292 338° Northwest 465 535 33,200 2,100 Climbing Albuquerque Center
05:48PM 36.3175 -107.3833 339° North 456 525 35,100 1,740 Climbing Albuquerque Center
05:49PM 36.4444 -107.4475 338° Northwest 445 512 36,800 1,380 Climbing Albuquerque Center
05:50PM 36.5342 -107.5267 325° Northwest 427 491 38,000 540 Climbing Albuquerque Center
05:51PM 36.6217 -107.6347 315° West 402 463 38,000  Level Denver Center
05:52PM 36.7100 -107.7444 315° West 402 463 38,000  Level Denver Center
05:53PM 36.7847 -107.8375 315° West 399 459 38,000  Level Denver Center
05:54PM 36.8717 -107.9461 315° West 397 457 38,000  Level Denver Center
05:55PM 36.9467 -108.0408 315° West 402 463 38,000  Level Denver Center
05:56PM 37.0350 -108.1517 315° West 404 465 38,000  Level Denver Center
05:58PM 37.1100 -108.2486 314° West 405 466 38,000  Level Denver Center
05:59PM 37.1997 -108.3619 315° West 410 472 38,000  Level Denver Center
06:00PM 37.2769 -108.4619 314° West 415 478 38,000  Level Denver Center
06:01PM 37.3681 -108.5772 315° West 415 478 38,000  Level Denver Center
06:02PM 37.4328 -108.6589 315° West 415 478 38,000  Level Denver Center
06:03PM 37.5231 -108.7758 314° West 416 479 38,000  Level Denver Center
06:04PM 37.6139 -108.8944 314° West 420 483 38,000  Level Denver Center
06:05PM 37.6917 -108.9944 315° West 419 482 38,000  Level Denver Center
06:06PM 37.7822 -109.1119 314° West 418 481 38,000  Level Denver Center
06:07PM 37.8611 -109.2139 314° West 424 488 38,000  Level Denver Center
06:08PM 37.9517 -109.3347 314° West 425 489 38,000  Level Denver Center
06:09PM 38.0303 -109.4367 314° West 423 487 38,000  Level Denver Center
06:10PM 38.1181 -109.5531 314° West 425 489 38,000  Level Denver Center
06:11PM 38.2097 -109.6728 314° West 423 487 38,000  Level Denver Center
06:12PM 38.2864 -109.7772 313° West 423 487 38,000  Level Denver Center
06:13PM 38.3647 -109.8811 314° West 423 487 38,000  Level Denver Center
06:14PM 38.4558 -110.0019 314° West 423 487 38,000  Level Denver Center
06:15PM 38.5347 -110.1086 313° West 429 494 38,000  Level Denver Center
06:16PM 38.6022 -110.1992 314° West 431 496 38,000  Level Salt Lake Center
06:16PM 38.6261 -110.2325 313° West 429 494 38,000  Level Denver Center
06:17PM 38.7047 -110.3389 313° West 428 493 38,000  Level Denver Center
06:18PM 38.7714 -110.4297 313° West 429 494 38,000  Level Salt Lake Center
06:19PM 38.8503 -110.5353 314° West 428 493 38,000  Level Salt Lake Center
06:19PM 38.8750 -110.5706 312° West 430 495 38,000  Level Denver Center
06:20PM 38.9281 -110.6411 314° West 425 489 38,000  Level Salt Lake Center
06:21PM 39.0158 -110.7647 312° West 419 482 38,000  Level Salt Lake Center
06:22PM 39.0936 -110.8714 313° West 424 488 38,000  Level Salt Lake Center
06:23PM 39.1842 -110.9961 313° West 425 489 38,000  Level Salt Lake Center
06:24PM 39.2625 -111.1044 313° West 428 493 38,000  Level Salt Lake Center
06:25PM 39.3539 -111.2317 313° West 432 497 38,000  Level Salt Lake Center
06:26PM 39.4372 -111.3475 313° West 430 495 38,000  Level Salt Lake Center
06:27PM 39.5178 -111.4617 312° West 430 495 38,000  Level Salt Lake Center
06:28PM 39.5989 -111.5747 313° West 428 493 38,000  Level Salt Lake Center
06:29PM 39.6783 -111.6864 313° West 424 488 38,000  Level Salt Lake Center
06:30PM 39.7581 -111.7994 313° West 424 488 38,000  Level Salt Lake Center
06:31PM 39.8383 -111.9131 313° West 425 489 38,000  Level Salt Lake Center
06:32PM 39.9183 -112.0289 312° West 428 493 38,000  Level Salt Lake Center
06:33PM 40.0136 -112.1650 312° West 424 488 38,000 180 Level Salt Lake Center
06:34PM 40.0936 -112.2797 312° West 427 491 38,400 780 Climbing Salt Lake Center
06:35PM 40.1736 -112.3961 312° West 429 494 39,600 720 Climbing Salt Lake Center
06:36PM 40.2517 -112.5100 312° West 423 487 40,000 180 Climbing Salt Lake Center
06:37PM 40.3300 -112.6228 312° West 418 481 40,000  Level Salt Lake Center
06:38PM 40.4078 -112.7383 311° West 421 484 40,000  Level Salt Lake Center
06:39PM 40.4856 -112.8519 312° West 419 482 40,000  Level Salt Lake Center
06:41PM 40.5794 -112.9900 312° West 421 484 40,000  Level Salt Lake Center
06:42PM 40.6578 -113.1047 312° West 421 484 40,000  Level Salt Lake Center
06:43PM 40.7358 -113.2203 312° West 422 486 40,000  Level Salt Lake Center
06:44PM 40.8128 -113.3347 312° West 419 482 40,000  Level Salt Lake Center
06:45PM 40.8881 -113.4497 311° West 415 478 40,000  Level Salt Lake Center
06:46PM 40.9647 -113.5636 312° West 414 476 40,000  Level Salt Lake Center
06:47PM 41.0394 -113.6786 311° West 413 475 40,000  Level Salt Lake Center
06:48PM 41.1286 -113.8158 311° West 411 473 40,000  Level Salt Lake Center
06:49PM 41.2047 -113.9300 312° West 412 474 40,000  Level Salt Lake Center
06:50PM 41.2794 -114.0461 311° West 413 475 40,000  Level Salt Lake Center
06:51PM 41.3544 -114.1628 311° West 415 478 40,000  Level Salt Lake Center
06:52PM 41.4344 -114.2806 312° West 423 487 40,000  Level Salt Lake Center
06:53PM 41.5111 -114.3986 311° West 423 487 40,000  Level Salt Lake Center
06:54PM 41.5961 -114.5331 310° West 427 491 40,000  Level Salt Lake Center
06:55PM 41.6708 -114.6469 311° West 426 490 40,000  Level Salt Lake Center
06:56PM 41.7547 -114.7800 310° West 419 482 40,000  Level Salt Lake Center
06:57PM 41.8267 -114.8936 310° West 418 481 40,000  Level Salt Lake Center
06:58PM 41.9128 -115.0278 311° West 418 481 40,000  Level Salt Lake Center
06:59PM 41.9853 -115.1411 311° West 419 482 40,000  Level Salt Lake Center
07:00PM 42.0678 -115.2747 310° West 415 478 40,000  Level Salt Lake Center
07:01PM 42.1419 -115.3936 310° West 418 481 40,000  Level Salt Lake Center
07:02PM 42.2131 -115.5086 310° West 417 480 40,000  Level Salt Lake Center
07:03PM 42.2958 -115.6414 310° West 414 476 40,000  Level Salt Lake Center
07:04PM 42.3661 -115.7561 310° West 414 476 40,000  Level Salt Lake Center
07:05PM 42.4358 -115.8700 310° West 409 471 40,000  Level Salt Lake Center
07:06PM 42.5183 -116.0047 310° West 414 476 40,000  Level Salt Lake Center
07:07PM 42.5889 -116.1203 310° West 415 478 40,000  Level Salt Lake Center
07:08PM 42.6714 -116.2550 310° West 415 478 40,000  Level Salt Lake Center
07:09PM 42.7406 -116.3719 309° West 415 478 40,000  Level Salt Lake Center
07:10PM 42.8236 -116.5078 310° West 416 479 40,000  Level Salt Lake Center
07:11PM 42.8933 -116.6253 309° West 415 478 40,000  Level Salt Lake Center
07:12PM 42.9633 -116.7428 309° West 417 480 40,000  Level Salt Lake Center
07:13PM 43.0439 -116.8778 309° West 409 471 40,000  Level Salt Lake Center
07:14PM 43.1122 -116.9919 309° West 405 466 40,000  Level Salt Lake Center
07:16PM 43.1903 -117.1256 309° West 400 460 40,000  Level Salt Lake Center
07:17PM 43.2589 -117.2414 309° West 406 467 40,000  Level Salt Lake Center
07:18PM 43.3378 -117.3778 309° West 408 470 40,000  Level Salt Lake Center
07:19PM 43.4058 -117.4942 309° West 407 468 40,000  Level Salt Lake Center
07:20PM 43.4736 -117.6081 309° West 402 463 40,000  Level Salt Lake Center
07:21PM 43.5522 -117.7453 308° West 406 467 40,000  Level Salt Lake Center
07:22PM 43.6192 -117.8625 308° West 406 467 40,000  Level Salt Lake Center
07:23PM 43.6978 -117.9981 309° West 404 465 40,000  Level Salt Lake Center
07:24PM 43.7625 -118.1128 308° West 396 456 40,000  Level Salt Lake Center
07:25PM 43.8264 -118.2233 309° West 386 444 40,000  Level Salt Lake Center
07:26PM 43.9003 -118.3547 308° West 386 444 40,000  Level Salt Lake Center
07:27PM 43.9642 -118.4681 308° West 388 447 40,000  Level Salt Lake Center
07:28PM 44.0375 -118.6003 308° West 387 445 40,000  Level Salt Lake Center
07:29PM 44.1017 -118.7133 308° West 388 447 40,000  Level Salt Lake Center
07:30PM 44.1625 -118.8275 307° West 390 449 40,000  Level Seattle Center
07:31PM 44.2256 -118.9422 308° West 389 448 40,000  Level Seattle Center
07:32PM 44.2864 -119.0550 307° West 383 441 40,000  Level Seattle Center
07:33PM 44.3633 -119.1894 309° West 392 451 40,000  Level Seattle Center
07:34PM 44.4275 -119.3097 307° West 385 443 40,000  Level Seattle Center
07:35PM 44.4981 -119.4306 309° West 395 455 40,000  Level Seattle Center
07:36PM 44.5625 -119.5525 307° West 392 451 40,000  Level Seattle Center
07:37PM 44.6278 -119.6717 308° West 388 447 40,000  Level Seattle Center
07:38PM 44.6919 -119.7925 307° West 387 445 40,000  Level Seattle Center
07:39PM 44.7569 -119.9139 307° West 389 448 40,000  Level Seattle Center
07:40PM 44.8228 -120.0375 307° West 393 452 40,000 -660 Level Seattle Center
07:41PM 44.8853 -120.1561 307° West 382 440 38,700 -1,860 Descending Seattle Center
07:42PM 44.9492 -120.2739 307° West 380 437 36,200 -2,520 Descending Seattle Center
07:43PM 45.0208 -120.4139 306° West 372 428 33,600 -2,280 Descending Seattle Center
07:44PM 45.0808 -120.5275 307° West 363 418 31,600 -1,680 Descending Seattle Center
07:45PM 45.1392 -120.6397 306° West 357 411 30,300 -1,620 Descending Seattle Center
07:46PM 45.2008 -120.7608 306° West 374 430 28,400 -2,040 Descending Seattle Center
07:47PM 45.2611 -120.8747 307° West 368 423 26,200 -2,160 Descending Seattle Center
07:48PM 45.3194 -120.9900 306° West 361 415 24,100 -2,100 Descending Seattle Center
07:49PM 45.3744 -121.0967 306° West 344 396 22,000 -2,100 Descending Seattle Center
07:50PM 45.4278 -121.2050 305° West 337 388 19,900 -2,160 Descending Seattle Center
07:51PM 45.4503 -121.3458 283° West 358 412 17,700 -2,280 Descending Seattle Center
07:52PM 45.4561 -121.4292 276° West 338 389 16,500 -1,980 Descending Seattle Center
07:52PM 45.4658 -121.4742 287° West 338 389 15,700 -1,920 Descending Seattle Center
07:53PM 45.4781 -121.6147 277° West 322 371 13,600 -2,040 Descending Seattle Center
07:54PM 45.4908 -121.7172 280° West 316 364 12,000 -1,800 Descending Seattle Center
07:55PM 45.5050 -121.8472 279° West 306 352 10,200 -1,440 Descending Seattle Center
07:56PM 45.5064 -121.9581 271° West 281 323 9,200 -1,200 Descending Seattle Center
07:57PM 45.5086 -122.0836 271° West 270 311 7,700 -1,080 Descending Seattle Center
07:58PM 45.5083 -122.1764 270° West 217 250 6,900 -840 Descending Seattle Center
07:59PM 45.5094 -122.2603 271° West 219 252 6,000 -960 Descending Seattle Center
08:00PM 45.4892 -122.3264 246° West 160 184 5,000 -1,140 Descending Seattle Center
08:01PM 45.5064 -122.3686 300° West 123 142 3,900 -1,320 Descending Seattle Center
08:02PM 45.5222 -122.4144 296° West 126 145 2,500 -1,020 Descending Seattle Center
08:03PM 45.5411 -122.4567 303° West 130 150 1,700 -720 Descending Seattle Center
08:04PM 45.5567 -122.4989 298° West 127 146 1,100 -660 Descending Seattle Center
08:05PM 45.5742 -122.5436 299° West 126 145 400 -600 Descending Seattle Center
08:07PM 45.5833 -122.5833 282° West  Level FlightAware Approximate